TimeEST,TemperatureF,Dew PointF,Humidity,Sea Level PressureIn,VisibilityMPH,Wind Direction,Wind SpeedMPH,Gust SpeedMPH,PrecipitationIn,Events,Conditions,WindDirDegrees,DateUTC
12:53 AM,64.0,61.0,90,30.06,10.0,WNW,3.5,-,N/A,,Mostly Cloudy,290,2012-01-19 05:53:00
1:53 AM,66.0,62.1,87,30.06,10.0,NW,5.8,-,N/A,,Overcast,320,2012-01-19 06:53:00
2:53 AM,64.9,62.1,90,30.03,10.0,Calm,Calm,-,N/A,,Scattered Clouds,0,2012-01-19 07:53:00
3:37 AM,62.6,60.8,94,30.04,10.0,NNW,5.8,-,N/A,,Mostly Cloudy,340,2012-01-19 08:37:00
3:53 AM,64.9,62.1,90,30.04,10.0,North,8.1,-,N/A,,Overcast,350,2012-01-19 08:53:00
4:53 AM,64.0,61.0,90,30.05,10.0,North,3.5,-,N/A,,Overcast,360,2012-01-19 09:53:00
5:53 AM,62.1,57.9,86,30.08,10.0,North,6.9,-,N/A,,Scattered Clouds,10,2012-01-19 10:53:00
6:53 AM,60.1,55.9,86,30.11,10.0,North,9.2,-,N/A,,Clear,10,2012-01-19 11:53:00
7:42 AM,59.0,55.4,88,30.11,10.0,NNE,6.9,-,N/A,,Partly Cloudy,30,2012-01-19 12:42:00
7:53 AM,59.0,55.9,90,30.12,10.0,NNE,6.9,-,N/A,,Partly Cloudy,20,2012-01-19 12:53:00
8:20 AM,60.8,55.4,82,30.12,10.0,NNE,8.1,-,N/A,,Mostly Cloudy,20,2012-01-19 13:20:00
8:40 AM,60.8,55.4,82,30.14,10.0,NE,9.2,-,N/A,,Scattered Clouds,40,2012-01-19 13:40:00
8:53 AM,61.0,55.0,81,30.16,10.0,NNE,11.5,-,N/A,,Scattered Clouds,20,2012-01-19 13:53:00
9:53 AM,64.0,51.1,63,30.18,10.0,NE,12.7,-,N/A,,Clear,50,2012-01-19 14:53:00
11:53 AM,71.1,41.0,34,30.17,10.0,ENE,11.5,-,N/A,,Clear,70,2012-01-19 16:53:00
1:53 PM,75.0,30.9,20,30.10,10.0,NE,13.8,20.7,N/A,,Clear,50,2012-01-19 18:53:00
2:53 PM,75.9,27.0,16,30.09,10.0,NE,10.4,17.3,N/A,,Clear,50,2012-01-19 19:53:00
3:53 PM,75.9,28.9,18,30.09,10.0,NE,9.2,-,N/A,,Clear,50,2012-01-19 20:53:00
4:53 PM,75.0,30.0,19,30.09,10.0,East,6.9,-,N/A,,Clear,90,2012-01-19 21:53:00
5:53 PM,71.1,33.1,25,30.12,10.0,ENE,4.6,-,N/A,,Clear,60,2012-01-19 22:53:00
6:53 PM,66.0,37.0,34,30.13,10.0,East,3.5,-,N/A,,Clear,90,2012-01-19 23:53:00
7:53 PM,62.1,37.9,41,30.14,10.0,East,4.6,-,N/A,,Clear,90,2012-01-20 00:53:00
9:53 PM,57.9,37.9,47,30.15,10.0,East,4.6,-,N/A,,Clear,90,2012-01-20 02:53:00
10:53 PM,59.0,39.0,48,30.16,10.0,ENE,6.9,-,N/A,,Clear,70,2012-01-20 03:53:00
11:53 PM,55.9,41.0,57,30.15,10.0,East,4.6,-,N/A,,Clear,90,2012-01-20 04:53:00